,,Stat6,,Stat2,,Stat8,,Stat9,,Stat10,,Wind1,,Wind1,
time,status,PA1M_AVG,status,PR1M_SUM,status,RH1M_AVG,status,SR1M_AVG,status,TA1M_AVG,status,W1dAve1m,status,W1sAve1m,
2004-06-01, 00:00:00,VALID,919.459,VALID,0,VALID,92.9874,VALID,0,VALID,18.4302,VALID,24,VALID,0.386265,
2004-06-01, 00:01:00,VALID,919.447,VALID,0,VALID,92.8907,VALID,0,VALID,18.4339,VALID,9,VALID,0.397166,
2004-06-01, 00:02:00,VALID,919.432,VALID,0,VALID,92.7381,VALID,0.0169808,VALID,18.4689,VALID,355,VALID,0.636458,
2004-06-01, 00:03:00,VALID,919.412,VALID,0,VALID,92.5054,VALID,0,VALID,18.5143,VALID,350,VALID,0.521802,
2004-06-01, 00:04:00,VALID,919.387,VALID,0,VALID,92.307,VALID,0.0169808,VALID,18.5395,VALID,350,VALID,0.488372,
2004-06-01, 00:05:00,VALID,919.385,VALID,0,VALID,92.0883,VALID,0,VALID,18.566,VALID,350,VALID,0.482812,
2004-06-01, 00:06:00,VALID,919.386,VALID,0,VALID,91.8785,VALID,0.0169808,VALID,18.6144,VALID,350,VALID,0.381114,
2004-06-01, 00:07:00,VALID,919.39,VALID,0,VALID,91.7768,VALID,0.0169808,VALID,18.6303,VALID,351,VALID,0.884115,
2004-06-01, 00:08:00,VALID,919.38,VALID,0,VALID,91.7234,VALID,-0.0169808,VALID,18.6497,VALID,17,VALID,0.594131,
2004-06-01, 00:09:00,VALID,919.375,VALID,0,VALID,91.5644,VALID,0,VALID,18.6693,VALID,17,VALID,0.416424,
2004-06-01, 00:10:00,VALID,919.361,VALID,0,VALID,91.4296,VALID,0,VALID,18.6951,VALID,17,VALID,0.517912,
2004-06-01, 00:11:00,VALID,919.359,VALID,0,VALID,91.3343,VALID,0.0339617,VALID,18.7244,VALID,17,VALID,0.407924,
2004-06-01, 00:12:00,VALID,919.341,VALID,0,VALID,91.375,VALID,0.0169808,VALID,18.7368,VALID,17,VALID,0.36814,
2004-06-01, 00:13:00,VALID,919.336,VALID,0,VALID,91.4754,VALID,-0.0169808,VALID,18.7373,VALID,17,VALID,0.381359,
2004-06-01, 00:14:00,VALID,919.344,VALID,0,VALID,91.6445,VALID,0,VALID,18.7212,VALID,17,VALID,0.304167,
2004-06-01, 00:15:00,VALID,919.333,VALID,0,VALID,91.8035,VALID,0,VALID,18.708,VALID,17,VALID,0.466844,
2004-06-01, 00:16:00,VALID,919.333,VALID,0,VALID,92.1367,VALID,0,VALID,18.6854,VALID,18,VALID,0.452955,
2004-06-01, 00:17:00,VALID,919.31,VALID,0,VALID,92.2142,VALID,0.0339617,VALID,18.6631,VALID,18,VALID,0.479833,
2004-06-01, 00:18:00,VALID,919.298,VALID,0,VALID,92.3592,VALID,0,VALID,18.6271,VALID,18,VALID,0.439704,
2004-06-01, 00:19:00,VALID,919.284,VALID,0,VALID,92.3846,VALID,0,VALID,18.6179,VALID,18,VALID,0.423177,
2004-06-01, 00:20:00,VALID,919.264,VALID,0,VALID,92.2613,VALID,0,VALID,18.6435,VALID,22,VALID,0.630382,
2004-06-01, 00:21:00,VALID,919.251,VALID,0,VALID,92.1087,VALID,0,VALID,18.6852,VALID,28,VALID,0.565104,
2004-06-01, 00:22:00,VALID,919.242,VALID,0,VALID,92.0654,VALID,0,VALID,18.7209,VALID,26,VALID,0.345203,
2004-06-01, 00:23:00,VALID,919.242,VALID,0,VALID,92.0515,VALID,0,VALID,18.7242,VALID,26,VALID,0.0245028,
2004-06-01, 00:24:00,VALID,919.241,VALID,0,VALID,92.068,VALID,0,VALID,18.7242,VALID,26,VALID,0,
2004-06-01, 00:25:00,VALID,919.221,VALID,0,VALID,92.0985,VALID,-0.0169808,VALID,18.7371,VALID,26,VALID,0.161979,
2004-06-01, 00:26:00,VALID,919.212,VALID,0,VALID,91.8722,VALID,0.0169808,VALID,18.7398,VALID,26,VALID,0.257254,
2004-06-01, 00:27:00,VALID,919.175,VALID,0,VALID,91.9688,VALID,-0.0339617,VALID,18.7825,VALID,21,VALID,0.389509,
2004-06-01, 00:28:00,VALID,919.157,VALID,0,VALID,91.7679,VALID,0,VALID,18.792,VALID,350,VALID,0.447716,
2004-06-01, 00:29:00,VALID,919.148,VALID,0,VALID,91.7437,VALID,0,VALID,18.8081,VALID,352,VALID,0.513445,
2004-06-01, 00:30:00,VALID,919.126,VALID,0,VALID,91.8022,VALID,0,VALID,18.8307,VALID,342,VALID,0.561955,
2004-06-01, 00:31:00,VALID,919.121,VALID,0,VALID,91.923,VALID,0,VALID,18.8535,VALID,342,VALID,0.451766,
2004-06-01, 00:32:00,VALID,919.103,VALID,0,VALID,92.012,VALID,0,VALID,18.8374,VALID,342,VALID,0.372461,
2004-06-01, 00:33:00,VALID,919.103,VALID,0,VALID,92.0578,VALID,0.0169808,VALID,18.8369,VALID,338,VALID,0.609375,
2004-06-01, 00:34:00,VALID,919.107,VALID,0,VALID,92.0019,VALID,0,VALID,18.863,VALID,324,VALID,0.299293,
2004-06-01, 00:35:00,VALID,919.102,VALID,0,VALID,91.7882,VALID,-0.0849042,VALID,18.8515,VALID,3,VALID,0.396662,
2004-06-01, 00:36:00,VALID,919.075,VALID,0,VALID,92.1074,VALID,-0.101885,VALID,18.8453,VALID,4,VALID,0.383557,
2004-06-01, 00:37:00,VALID,919.075,VALID,0,VALID,92.4635,VALID,-0.118866,VALID,18.7837,VALID,353,VALID,0.699033,
2004-06-01, 00:38:00,VALID,919.051,VALID,0,VALID,92.7012,VALID,-0.101885,VALID,18.7574,VALID,358,VALID,0.724653,
2004-06-01, 00:39:00,VALID,919.041,VALID,0,VALID,92.7725,VALID,-0.101885,VALID,18.7546,VALID,4,VALID,0.796113,
2004-06-01, 00:40:00,VALID,919.03,VALID,0,VALID,92.7737,VALID,-0.118866,VALID,18.7484,VALID,6,VALID,0.960751,
2004-06-01, 00:41:00,VALID,919.019,VALID,0,VALID,92.7292,VALID,-0.135847,VALID,18.775,VALID,5,VALID,0.796376,
2004-06-01, 00:42:00,VALID,918.994,VALID,0,VALID,92.7648,VALID,-0.135847,VALID,18.7618,VALID,355,VALID,0.570703,
2004-06-01, 00:43:00,VALID,918.962,VALID,0,VALID,92.7928,VALID,-0.101885,VALID,18.7546,VALID,350,VALID,0.535823,
2004-06-01, 00:44:00,VALID,918.945,VALID,0,VALID,92.7101,VALID,-0.118866,VALID,18.765,VALID,352,VALID,0.541481,
2004-06-01, 00:45:00,VALID,918.932,VALID,0,VALID,92.7674,VALID,-0.135847,VALID,18.7613,VALID,353,VALID,0.344893,
2004-06-01, 00:46:00,VALID,918.931,VALID,0,VALID,92.789,VALID,-0.101885,VALID,18.7807,VALID,353,VALID,0.345846,
2004-06-01, 00:47:00,VALID,918.898,VALID,0,VALID,92.6733,VALID,-0.101885,VALID,18.7902,VALID,34,VALID,0.297602,
2004-06-01, 00:48:00,VALID,918.879,VALID,0,VALID,92.6911,VALID,-0.118866,VALID,18.807,VALID,33,VALID,0.44707,
2004-06-01, 00:49:00,VALID,918.846,VALID,0,VALID,92.6402,VALID,-0.135847,VALID,18.807,VALID,16,VALID,0.365525,
2004-06-01, 00:50:00,VALID,918.836,VALID,0,VALID,92.5067,VALID,-0.0169808,VALID,18.8051,VALID,16,VALID,0.357292,
2004-06-01, 00:51:00,VALID,918.806,VALID,0,VALID,92.4622,VALID,-0.0169808,VALID,18.7952,VALID,16,VALID,0.276042,
2004-06-01, 00:52:00,VALID,918.779,VALID,0,VALID,92.3681,VALID,0,VALID,18.7984,VALID,16,VALID,0.364139,
2004-06-01, 00:53:00,VALID,918.73,VALID,0,VALID,92.3159,VALID,0,VALID,18.7922,VALID,16,VALID,0.269627,
2004-06-01, 00:54:00,VALID,918.691,VALID,0,VALID,92.5194,VALID,0,VALID,18.7795,VALID,16,VALID,0.307617,
2004-06-01, 00:55:00,VALID,918.668,VALID,0,VALID,92.803,VALID,0,VALID,18.7401,VALID,16,VALID,0.0649182,
2004-06-01, 00:56:00,VALID,918.656,VALID,0,VALID,93.1578,VALID,0,VALID,18.6981,VALID,307,VALID,0.327943,
2004-06-01, 00:57:00,VALID,918.652,VALID,0,VALID,93.4655,VALID,0,VALID,18.6306,VALID,225,VALID,0.399709,
2004-06-01, 00:58:00,VALID,918.636,VALID,0,VALID,93.6689,VALID,0,VALID,18.608,VALID,225,VALID,0.359193,
2004-06-01, 00:59:00,VALID,918.616,VALID,0,VALID,93.7948,VALID,0,VALID,18.6082,VALID,321,VALID,0.447621,
2004-06-01, 01:00:00,VALID,918.598,VALID,0,VALID,93.9754,VALID,-0.0169808,VALID,18.5729,VALID,62,VALID,0.818026,
2004-06-01, 01:01:00,VALID,918.602,VALID,0,VALID,93.9983,VALID,0,VALID,18.5665,VALID,44,VALID,0.718229,
2004-06-01, 01:02:00,VALID,918.582,VALID,0,VALID,93.9207,VALID,-0.0169808,VALID,18.5819,VALID,38,VALID,0.627604,
2004-06-01, 01:03:00,VALID,918.581,VALID,0,VALID,93.9118,VALID,-0.0169808,VALID,18.602,VALID,29,VALID,0.493075,
2004-06-01, 01:04:00,VALID,918.578,VALID,0,VALID,94.0479,VALID,0,VALID,18.5821,VALID,29,VALID,0.202762,
2004-06-01, 01:05:00,VALID,918.56,VALID,0,VALID,94.1725,VALID,0,VALID,18.5533,VALID,29,VALID,0.0633681,
2004-06-01, 01:06:00,VALID,918.544,VALID,0,VALID,94.2984,VALID,-0.0169808,VALID,18.5339,VALID,29,VALID,0.173018,
2004-06-01, 01:07:00,VALID,918.512,VALID,0,VALID,94.4039,VALID,0,VALID,18.5111,VALID,71,VALID,0.454241,
2004-06-01, 01:08:00,VALID,918.487,VALID,0,VALID,94.5985,VALID,-0.0169808,VALID,18.5017,VALID,138,VALID,0.673633,
2004-06-01, 01:09:00,VALID,918.482,VALID,0,VALID,94.7511,VALID,0,VALID,18.4756,VALID,140,VALID,0.627344,
2004-06-01, 01:10:00,VALID,918.47,VALID,0,VALID,94.8998,VALID,0.0169808,VALID,18.453,VALID,150,VALID,1.0747,
2004-06-01, 01:11:00,VALID,918.467,VALID,0,VALID,94.9431,VALID,0,VALID,18.421,VALID,152,VALID,1.07552,
2004-06-01, 01:12:00,VALID,918.458,VALID,0,VALID,94.9469,VALID,0,VALID,18.3818,VALID,139,VALID,1.01916,
2004-06-01, 01:13:00,VALID,918.473,VALID,0,VALID,95.0359,VALID,0,VALID,18.3659,VALID,138,VALID,0.820313,
2004-06-01, 01:14:00,VALID,918.484,VALID,0,VALID,95.1211,VALID,0,VALID,18.334,VALID,152,VALID,0.449591,
2004-06-01, 01:15:00,VALID,918.485,VALID,0,VALID,95.1758,VALID,0,VALID,18.3015,VALID,166,VALID,0.542553,
2004-06-01, 01:16:00,VALID,918.475,VALID,0,VALID,95.2368,VALID,-0.0169808,VALID,18.2794,VALID,168,VALID,0.483817,
2004-06-01, 01:17:00,VALID,918.464,VALID,0,VALID,95.3614,VALID,0,VALID,18.263,VALID,167,VALID,0.101563,
2004-06-01, 01:18:00,VALID,918.462,VALID,0,VALID,95.481,VALID,0,VALID,18.2335,VALID,166,VALID,0.246626,
2004-06-01, 01:19:00,VALID,918.457,VALID,0,VALID,95.5611,VALID,0,VALID,18.2206,VALID,165,VALID,0.465732,
2004-06-01, 01:20:00,VALID,918.421,VALID,0,VALID,95.5852,VALID,0,VALID,18.1985,VALID,159,VALID,0.46875,
2004-06-01, 01:21:00,VALID,918.428,VALID,0,VALID,95.701,VALID,0,VALID,18.1759,VALID,155,VALID,0.323633,
2004-06-01, 01:22:00,VALID,918.416,VALID,0,VALID,95.8485,VALID,0.0169808,VALID,18.1429,VALID,135,VALID,0.503227,
2004-06-01, 01:23:00,VALID,918.406,VALID,0,VALID,96.043,VALID,0,VALID,18.1109,VALID,135,VALID,0.338778,
2004-06-01, 01:24:00,VALID,918.417,VALID,0,VALID,96.216,VALID,0,VALID,18.0915,VALID,135,VALID,0.758371,
2004-06-01, 01:25:00,VALID,918.393,VALID,0,VALID,96.3546,VALID,0,VALID,18.076,VALID,138,VALID,0.856712,
2004-06-01, 01:26:00,VALID,918.397,VALID,0,VALID,96.4131,VALID,0,VALID,18.0659,VALID,134,VALID,0.723656,
2004-06-01, 01:27:00,VALID,918.382,VALID,0,VALID,96.5084,VALID,-0.0169808,VALID,18.0525,VALID,134,VALID,0.682351,
2004-06-01, 01:28:00,VALID,918.387,VALID,0,VALID,96.633,VALID,0,VALID,18.0696,VALID,134,VALID,0.493823,
2004-06-01, 01:29:00,VALID,918.393,VALID,0,VALID,96.6623,VALID,0,VALID,18.0592,VALID,134,VALID,0.236793,
2004-06-01, 01:30:00,VALID,918.39,VALID,0,VALID,96.6508,VALID,-0.0169808,VALID,18.0661,VALID,134,VALID,0.100836,
2004-06-01, 01:31:00,VALID,918.385,VALID,0,VALID,96.6928,VALID,-0.0339617,VALID,18.0564,VALID,134,VALID,0.000355114,
2004-06-01, 01:32:00,VALID,918.382,VALID,0,VALID,96.7259,VALID,-0.0339617,VALID,18.0569,VALID,134,VALID,0.0691964,
2004-06-01, 01:33:00,VALID,918.37,VALID,0,VALID,96.7691,VALID,-0.0169808,VALID,18.05,VALID,134,VALID,0.070122,
2004-06-01, 01:34:00,VALID,918.375,VALID,0,VALID,96.8988,VALID,0.0169808,VALID,18.0306,VALID,134,VALID,0,
2004-06-01, 01:35:00,VALID,918.371,VALID,0,VALID,97.0743,VALID,0,VALID,17.9947,VALID,134,VALID,0,
2004-06-01, 01:36:00,VALID,918.368,VALID,0,VALID,97.2409,VALID,0,VALID,17.9788,VALID,134,VALID,0.27939,
2004-06-01, 01:37:00,VALID,918.351,VALID,0,VALID,97.3757,VALID,-0.0339617,VALID,17.9469,VALID,134,VALID,0.333789,
2004-06-01, 01:38:00,VALID,918.334,VALID,0,VALID,97.5384,VALID,-0.0169808,VALID,17.9209,VALID,134,VALID,0.229167,
2004-06-01, 01:39:00,VALID,918.309,VALID,0,VALID,97.6694,VALID,0,VALID,17.911,VALID,134,VALID,0.421365,
2004-06-01, 01:40:00,VALID,918.306,VALID,0,VALID,97.7546,VALID,0,VALID,17.9015,VALID,134,VALID,0.346413,
2004-06-01, 01:41:00,VALID,918.301,VALID,0,VALID,97.9174,VALID,-0.0169808,VALID,17.8985,VALID,134,VALID,0.0566406,
2004-06-01, 01:42:00,VALID,918.273,VALID,0,VALID,97.9822,VALID,-0.0509425,VALID,17.902,VALID,134,VALID,0.062872,
2004-06-01, 01:43:00,VALID,918.26,VALID,0,VALID,97.9377,VALID,-0.0509425,VALID,17.9024,VALID,134,VALID,0.420387,
2004-06-01, 01:44:00,VALID,918.239,VALID,0,VALID,97.8156,VALID,-0.0169808,VALID,17.9121,VALID,128,VALID,0.58125,
2004-06-01, 01:45:00,VALID,918.235,VALID,0,VALID,97.7533,VALID,-0.0169808,VALID,17.9119,VALID,123,VALID,0.659375,
2004-06-01, 01:46:00,VALID,918.24,VALID,0,VALID,97.8767,VALID,0,VALID,17.8856,VALID,122,VALID,0.714063,
2004-06-01, 01:47:00,VALID,918.249,VALID,0,VALID,97.9644,VALID,0,VALID,17.8824,VALID,122,VALID,0.446911,
2004-06-01, 01:48:00,VALID,918.251,VALID,0,VALID,98.0089,VALID,-0.0339617,VALID,17.8561,VALID,122,VALID,0.170759,
2004-06-01, 01:49:00,VALID,918.25,VALID,0,VALID,98.1068,VALID,0,VALID,17.8794,VALID,122,VALID,0.128397,
2004-06-01, 01:50:00,VALID,918.247,VALID,0,VALID,98.1933,VALID,0,VALID,17.8792,VALID,122,VALID,0.280717,
2004-06-01, 01:51:00,VALID,918.238,VALID,0,VALID,98.2404,VALID,0,VALID,17.8893,VALID,122,VALID,0.304306,
2004-06-01, 01:52:00,VALID,918.242,VALID,0,VALID,98.1984,VALID,0,VALID,17.9056,VALID,134,VALID,0.701219,
2004-06-01, 01:53:00,VALID,918.218,VALID,0,VALID,98.1221,VALID,0,VALID,17.9149,VALID,137,VALID,1.00545,
2004-06-01, 01:54:00,VALID,918.187,VALID,0,VALID,97.9949,VALID,-0.0169808,VALID,17.9405,VALID,132,VALID,1.05804,
2004-06-01, 01:55:00,VALID,918.159,VALID,0,VALID,97.6745,VALID,0,VALID,17.9794,VALID,130,VALID,1.43293,
2004-06-01, 01:56:00,VALID,918.135,VALID,0,VALID,97.4062,VALID,-0.0509425,VALID,17.9993,VALID,130,VALID,1.1061,
2004-06-01, 01:57:00,VALID,918.107,VALID,0,VALID,97.1544,VALID,0,VALID,17.9923,VALID,135,VALID,1.10903,
2004-06-01, 01:58:00,VALID,918.113,VALID,0,VALID,97.0298,VALID,0,VALID,17.9889,VALID,142,VALID,1.10861,
2004-06-01, 01:59:00,VALID,918.105,VALID,0,VALID,96.9853,VALID,-0.0169808,VALID,17.9923,VALID,142,VALID,1.00038,
2004-06-01, 02:00:00,VALID,918.108,VALID,0,VALID,97.0094,VALID,-0.0169808,VALID,17.979,VALID,146,VALID,1.05469,
2004-06-01, 02:01:00,VALID,918.103,VALID,0,VALID,97.0044,VALID,0,VALID,17.973,VALID,145,VALID,1.21786,
2004-06-01, 02:02:00,VALID,918.094,VALID,0,VALID,97.0349,VALID,0,VALID,17.9665,VALID,136,VALID,1.19368,
2004-06-01, 02:03:00,VALID,918.081,VALID,0,VALID,97.0984,VALID,0.0169808,VALID,17.9511,VALID,127,VALID,1.39566,
2004-06-01, 02:04:00,VALID,918.066,VALID,0,VALID,97.0781,VALID,-0.0169808,VALID,17.9377,VALID,128,VALID,1.48775,
2004-06-01, 02:05:00,VALID,918.031,VALID,0,VALID,96.9878,VALID,-0.0169808,VALID,17.9241,VALID,109,VALID,1.16264,
2004-06-01, 02:06:00,VALID,918.028,VALID,0,VALID,96.9777,VALID,0,VALID,17.9239,VALID,101,VALID,0.753711,
2004-06-01, 02:07:00,VALID,918.001,VALID,0,VALID,96.8568,VALID,-0.0339617,VALID,17.9308,VALID,112,VALID,1.18274,
2004-06-01, 02:08:00,VALID,917.989,VALID,0,VALID,96.6419,VALID,-0.0339617,VALID,17.9407,VALID,120,VALID,1.40208,
2004-06-01, 02:09:00,VALID,917.99,VALID,0,VALID,96.4131,VALID,0,VALID,17.9732,VALID,114,VALID,1.63808,
2004-06-01, 02:10:00,VALID,917.996,VALID,0,VALID,96.16,VALID,-0.0339617,VALID,18.0179,VALID,113,VALID,1.37899,
2004-06-01, 02:11:00,VALID,917.993,VALID,0,VALID,96.0748,VALID,0,VALID,18.0604,VALID,118,VALID,1.3599,
2004-06-01, 02:12:00,VALID,917.986,VALID,0,VALID,96.0036,VALID,0,VALID,18.0758,VALID,116,VALID,1.38263,
2004-06-01, 02:13:00,VALID,917.981,VALID,0,VALID,95.8167,VALID,-0.0169808,VALID,18.1053,VALID,113,VALID,1.82493,
2004-06-01, 02:14:00,VALID,917.983,VALID,0,VALID,95.5318,VALID,0,VALID,18.1411,VALID,123,VALID,1.4057,
2004-06-01, 02:15:00,VALID,917.964,VALID,0,VALID,95.2915,VALID,-0.0509425,VALID,18.1766,VALID,119,VALID,1.42857,
2004-06-01, 02:16:00,VALID,917.954,VALID,0,VALID,95.1135,VALID,-0.0169808,VALID,18.2217,VALID,123,VALID,1.41729,
2004-06-01, 02:17:00,VALID,917.946,VALID,0,VALID,94.9393,VALID,0,VALID,18.2506,VALID,117,VALID,1.54074,
2004-06-01, 02:18:00,VALID,917.94,VALID,0,VALID,94.7943,VALID,0,VALID,18.2734,VALID,113,VALID,1.12333,
2004-06-01, 02:19:00,VALID,917.941,VALID,0,VALID,94.7409,VALID,0,VALID,18.2858,VALID,124,VALID,1.00438,
2004-06-01, 02:20:00,VALID,917.932,VALID,0,VALID,94.7905,VALID,-0.0339617,VALID,18.2695,VALID,125,VALID,1.10212,
2004-06-01, 02:21:00,VALID,917.933,VALID,0,VALID,94.863,VALID,-0.0679233,VALID,18.2702,VALID,129,VALID,1.31232,
2004-06-01, 02:22:00,VALID,917.938,VALID,0,VALID,94.9215,VALID,-0.101885,VALID,18.2672,VALID,120,VALID,1.38991,
2004-06-01, 02:23:00,VALID,917.922,VALID,0,VALID,94.8922,VALID,-0.0679233,VALID,18.2736,VALID,110,VALID,1.43471,
2004-06-01, 02:24:00,VALID,917.922,VALID,0,VALID,94.8706,VALID,-0.0849042,VALID,18.2769,VALID,107,VALID,1.57273,
2004-06-01, 02:25:00,VALID,917.909,VALID,0,VALID,94.9189,VALID,-0.0679233,VALID,18.2965,VALID,108,VALID,1.4053,
2004-06-01, 02:26:00,VALID,917.906,VALID,0,VALID,94.9647,VALID,-0.0679233,VALID,18.2928,VALID,116,VALID,1.39648,
2004-06-01, 02:27:00,VALID,917.897,VALID,0,VALID,94.8604,VALID,-0.0679233,VALID,18.2992,VALID,119,VALID,1.28441,
2004-06-01, 02:28:00,VALID,917.894,VALID,0,VALID,94.8121,VALID,-0.0509425,VALID,18.296,VALID,121,VALID,1.49256,
2004-06-01, 02:29:00,VALID,917.886,VALID,0,VALID,94.8426,VALID,-0.0509425,VALID,18.2962,VALID,126,VALID,1.35751,
2004-06-01, 02:30:00,VALID,917.896,VALID,0,VALID,94.8312,VALID,-0.0679233,VALID,18.2799,VALID,124,VALID,1.33203,
2004-06-01, 02:31:00,VALID,917.876,VALID,0,VALID,94.8363,VALID,-0.0679233,VALID,18.2799,VALID,123,VALID,1.3085,
2004-06-01, 02:32:00,VALID,917.892,VALID,0,VALID,94.807,VALID,-0.0679233,VALID,18.2612,VALID,119,VALID,1.15807,
2004-06-01, 02:33:00,VALID,917.888,VALID,0,VALID,94.7689,VALID,-0.101885,VALID,18.248,VALID,121,VALID,1.07286,
2004-06-01, 02:34:00,VALID,917.885,VALID,0,VALID,94.6862,VALID,-0.0509425,VALID,18.2478,VALID,121,VALID,1.45567,
2004-06-01, 02:35:00,VALID,917.885,VALID,0,VALID,94.587,VALID,0.0169808,VALID,18.2561,VALID,116,VALID,1.32286,
2004-06-01, 02:36:00,VALID,917.884,VALID,0,VALID,94.4891,VALID,0,VALID,18.2692,VALID,121,VALID,1.28627,
2004-06-01, 02:37:00,VALID,917.876,VALID,0,VALID,94.4472,VALID,0,VALID,18.2826,VALID,123,VALID,1.258,
2004-06-01, 02:38:00,VALID,917.876,VALID,0,VALID,94.4484,VALID,0,VALID,18.2663,VALID,126,VALID,1.21639,
2004-06-01, 02:39:00,VALID,917.869,VALID,0,VALID,94.5196,VALID,0.0169808,VALID,18.237,VALID,131,VALID,0.995821,
2004-06-01, 02:40:00,VALID,917.862,VALID,0,VALID,94.7104,VALID,0.0169808,VALID,18.2111,VALID,130,VALID,1.22479,
2004-06-01, 02:41:00,VALID,917.847,VALID,0,VALID,94.704,VALID,0.0169808,VALID,18.1916,VALID,127,VALID,1.09184,
2004-06-01, 02:42:00,VALID,917.833,VALID,0,VALID,94.6265,VALID,0.0169808,VALID,18.1821,VALID,124,VALID,1.07849,
2004-06-01, 02:43:00,VALID,917.835,VALID,0,VALID,94.671,VALID,0.0509425,VALID,18.1853,VALID,126,VALID,1.07745,
2004-06-01, 02:44:00,VALID,917.829,VALID,0,VALID,94.6061,VALID,0.0169808,VALID,18.1851,VALID,126,VALID,1.2587,
2004-06-01, 02:45:00,VALID,917.816,VALID,0,VALID,94.4294,VALID,0.0339617,VALID,18.2107,VALID,127,VALID,1.21075,
2004-06-01, 02:46:00,VALID,917.798,VALID,0,VALID,94.259,VALID,0.0169808,VALID,18.2402,VALID,126,VALID,1.07431,
2004-06-01, 02:47:00,VALID,917.79,VALID,0,VALID,94.2297,VALID,0.0339617,VALID,18.243,VALID,123,VALID,1.03757,
2004-06-01, 02:48:00,VALID,917.757,VALID,0,VALID,94.1089,VALID,0.0339617,VALID,18.2757,VALID,111,VALID,1.00879,
2004-06-01, 02:49:00,VALID,917.715,VALID,0,VALID,93.8648,VALID,0,VALID,18.3043,VALID,106,VALID,1.14501,
2004-06-01, 02:50:00,VALID,917.699,VALID,0,VALID,93.4362,VALID,0,VALID,18.376,VALID,114,VALID,1.22198,
2004-06-01, 02:51:00,VALID,917.673,VALID,0,VALID,93.0675,VALID,0.0169808,VALID,18.4466,VALID,114,VALID,1.12329,
2004-06-01, 02:52:00,VALID,917.645,VALID,0,VALID,92.836,VALID,0,VALID,18.4887,VALID,122,VALID,1.01246,
2004-06-01, 02:53:00,VALID,917.635,VALID,0,VALID,92.5893,VALID,0.0339617,VALID,18.5113,VALID,111,VALID,0.64755,
2004-06-01, 02:54:00,VALID,917.601,VALID,0,VALID,92.6211,VALID,0.0679233,VALID,18.453,VALID,85,VALID,0.700335,
2004-06-01, 02:55:00,VALID,917.588,VALID,0,VALID,93.3587,VALID,0.0509425,VALID,18.3564,VALID,76,VALID,0.96224,
2004-06-01, 02:56:00,VALID,917.578,VALID,0,VALID,94.0199,VALID,0.0169808,VALID,18.2918,VALID,74,VALID,1.01617,
2004-06-01, 02:57:00,VALID,917.575,VALID,0,VALID,94.3314,VALID,0.0169808,VALID,18.2884,VALID,90,VALID,0.992543,
2004-06-01, 02:58:00,VALID,917.567,VALID,0,VALID,93.9983,VALID,0.0849042,VALID,18.3559,VALID,107,VALID,1.04421,
2004-06-01, 02:59:00,VALID,917.575,VALID,0,VALID,93.4299,VALID,0.0339617,VALID,18.3815,VALID,127,VALID,0.910156,
2004-06-01, 03:00:00,VALID,917.562,VALID,0,VALID,93.5176,VALID,0.0339617,VALID,18.3693,VALID,129,VALID,1.17873,
2004-06-01, 03:01:00,VALID,917.543,VALID,0,VALID,93.8037,VALID,0.0679233,VALID,18.3045,VALID,126,VALID,1.23742,
2004-06-01, 03:02:00,VALID,917.524,VALID,0,VALID,94.3149,VALID,0.0339617,VALID,18.2529,VALID,119,VALID,1.23656,
2004-06-01, 03:03:00,VALID,917.524,VALID,0,VALID,94.306,VALID,0.0509425,VALID,18.2367,VALID,115,VALID,0.862351,
2004-06-01, 03:04:00,VALID,917.525,VALID,0,VALID,94.2768,VALID,0,VALID,18.2243,VALID,91,VALID,0.764931,
2004-06-01, 03:05:00,VALID,917.515,VALID,0,VALID,94.3531,VALID,0.0169808,VALID,18.2047,VALID,88,VALID,0.601753,
2004-06-01, 03:06:00,VALID,917.523,VALID,0,VALID,94.2208,VALID,0,VALID,18.1627,VALID,88,VALID,0.389535,
2004-06-01, 03:07:00,VALID,917.529,VALID,0,VALID,94.348,VALID,0.0339617,VALID,18.0982,VALID,88,VALID,0.507813,
2004-06-01, 03:08:00,VALID,917.533,VALID,0,VALID,94.924,VALID,0.0169808,VALID,18.0309,VALID,88,VALID,0.509448,
2004-06-01, 03:09:00,VALID,917.538,VALID,0,VALID,95.4975,VALID,0.0169808,VALID,17.9755,VALID,88,VALID,0.461648,
2004-06-01, 03:10:00,VALID,917.544,VALID,0,VALID,95.2623,VALID,0,VALID,17.9114,VALID,88,VALID,0.595749,
2004-06-01, 03:11:00,VALID,917.544,VALID,0,VALID,95.8001,VALID,0.0169808,VALID,17.8109,VALID,88,VALID,0.745739,
2004-06-01, 03:12:00,VALID,917.533,VALID,0,VALID,96.7106,VALID,0.0169808,VALID,17.792,VALID,88,VALID,0.823153,
2004-06-01, 03:13:00,VALID,917.521,VALID,0,VALID,96.4805,VALID,0,VALID,17.8238,VALID,88,VALID,0.568407,
2004-06-01, 03:14:00,VALID,917.495,VALID,0,VALID,95.191,VALID,0.0679233,VALID,17.7464,VALID,88,VALID,0.478981,
2004-06-01, 03:15:00,VALID,917.492,VALID,0,VALID,94.8057,VALID,0,VALID,17.6205,VALID,88,VALID,0.434956,
2004-06-01, 03:16:00,VALID,917.461,VALID,0,VALID,95.439,VALID,0,VALID,17.4914,VALID,88,VALID,0.473323,
2004-06-01, 03:17:00,VALID,917.46,VALID,0,VALID,96.0939,VALID,0,VALID,17.4209,VALID,64,VALID,0.720526,
2004-06-01, 03:18:00,VALID,917.465,VALID,0,VALID,96.4715,VALID,0.0339617,VALID,17.3467,VALID,64,VALID,0.738281,
2004-06-01, 03:19:00,VALID,917.465,VALID,0,VALID,96.8225,VALID,0.0509425,VALID,17.275,VALID,58,VALID,0.595958,
2004-06-01, 03:20:00,VALID,917.48,VALID,0,VALID,96.9802,VALID,-0.0339617,VALID,17.1982,VALID,58,VALID,0.197359,
2004-06-01, 03:21:00,VALID,917.47,VALID,0,VALID,97.4011,VALID,-0.0679233,VALID,17.1537,VALID,58,VALID,0.171494,
2004-06-01, 03:22:00,VALID,917.455,VALID,0,VALID,98.0382,VALID,-0.0509425,VALID,17.1636,VALID,58,VALID,0.277716,
2004-06-01, 03:23:00,VALID,917.457,VALID,0,VALID,98.4692,VALID,-0.0849042,VALID,17.2057,VALID,58,VALID,0.0584985,
2004-06-01, 03:24:00,VALID,917.432,VALID,0,VALID,98.3523,VALID,-0.0849042,VALID,17.1931,VALID,58,VALID,0.289807,
2004-06-01, 03:25:00,VALID,917.414,VALID,0,VALID,98.4603,VALID,-0.0509425,VALID,17.1765,VALID,58,VALID,0.486662,
2004-06-01, 03:26:00,VALID,917.407,VALID,0,VALID,98.3701,VALID,-0.0849042,VALID,17.1285,VALID,58,VALID,0.320724,
2004-06-01, 03:27:00,VALID,917.401,VALID,0,VALID,98.2849,VALID,-0.0849042,VALID,17.084,VALID,59,VALID,0.0509673,
2004-06-01, 03:28:00,VALID,917.391,VALID,0,VALID,98.1768,VALID,-0.0849042,VALID,17.0252,VALID,59,VALID,0,
2004-06-01, 03:29:00,VALID,917.377,VALID,0,VALID,98.1679,VALID,-0.0849042,VALID,16.99,VALID,59,VALID,0,
2004-06-01, 03:30:00,VALID,917.369,VALID,0,VALID,98.2887,VALID,-0.101885,VALID,16.9512,VALID,59,VALID,0,
2004-06-01, 03:31:00,VALID,917.35,VALID,0,VALID,98.8266,VALID,-0.0849042,VALID,16.9644,VALID,64,VALID,0.470486,
2004-06-01, 03:32:00,VALID,917.336,VALID,0,VALID,99.6111,VALID,-0.101885,VALID,17.0517,VALID,97,VALID,0.81582,
2004-06-01, 03:33:00,VALID,917.342,VALID,0,VALID,99.7548,VALID,-0.101885,VALID,17.1677,VALID,93,VALID,0.912024,
2004-06-01, 03:34:00,VALID,917.346,VALID,0,VALID,99.5819,VALID,-0.0849042,VALID,17.2354,VALID,91,VALID,0.977865,
2004-06-01, 03:35:00,VALID,917.359,VALID,0,VALID,99.5921,VALID,0.0169808,VALID,17.3568,VALID,97,VALID,1.45987,
2004-06-01, 03:36:00,VALID,917.391,VALID,0,VALID,98.8011,VALID,0,VALID,17.476,VALID,53,VALID,0.771763,